Hourly Data Report for July 04, 2022

MUSKOKA
ONTARIO
Current Station Operator: NAVCAN

44°58'29.000" N
79°18'12.000" W
281.90 m
6115529
71532
YQA

Download Data

Hourly Data (July 2022)
Hourly Data Report for July 4, 2022
TIME
LST
Temp Definition
°C
Dew Point Definition
°C
Rel Hum Definition
%
Precip. Amount Definition
mm

Wind Dir Definition
10's deg

Wind Spd Definition
km/h
Visibility Definition
km
Stn Press Definition
kPa
Hmdx Definition


Wind Chill Definition


Weather Definition


00:00 8.5 7.8 95 0.0   0 16.1 98.77     LegendNANA
01:00 7.5 7.0 96 0.0 LegendMM 4 16.1 98.75     LegendNANA
02:00 6.9 6.5 97 0.0   0 16.1 98.75     LegendNANA
03:00 7.3 6.9 97 0.0   0 16.1 98.76     LegendNANA
04:00 8.1 7.7 97 0.0   0 16.1 98.78     LegendNANA
05:00 8.8 8.2 96 0.0 LegendMM 4 16.1 98.80     LegendNANA
06:00 9.9 9.3 96 0.0   0 16.1 98.83     LegendNANA
07:00 11.7 10.8 94 0.0   0 16.1 98.86     LegendNANA
08:00 18.1 10.6 61 0.0 29 8 16.1 98.82     LegendNANA
09:00 20.8 10.5 51 0.0 27 8 16.1 98.82     LegendNANA
10:00 21.0 9.5 47 0.0 30 8 16.1 98.83     LegendNANA
11:00 20.6 9.6 49 0.0 32 5 16.1 98.80     LegendNANA
12:00 21.4 9.9 47 0.0 26 8 16.1 98.77     LegendNANA
13:00 21.6 10.1 47 0.0 LegendMM 4 16.1 98.75     LegendNANA
14:00 23.5 10.1 42 0.0 21 9 16.1 98.73 25   LegendNANA
15:00 24.6 9.5 38 0.0 19 13 16.1 98.66 26   LegendNANA
16:00 23.5 9.8 41 0.0   0 16.1 98.62 25   LegendNANA
17:00 22.7 11.3 48 0.0 26 5 16.1 98.60 25   LegendNANA
18:00 21.2 11.0 52 0.0 17 8 16.1 98.55     LegendNANA
19:00 19.0 12.8 67 0.0   0 16.1 98.51     LegendNANA
20:00 16.8 15.0 89 0.0 8 4 16.1 98.52     Rain
21:00 16.5 14.9 90 0.0   0 16.1 98.53     LegendNANA
22:00 16.5 15.1 92 0.0 LegendMM 4 16.1 98.48     LegendNANA
23:00 16.4 14.4 88 0.0 LegendMM 4 16.1 98.43     LegendNANA

Notes on Data Quality.

Legend

  • E = Estimated
  • M = Missing
  • NA = Not Available*
  • [empty] = Indicates an unobserved value
Date modified: